Simultaneous Nadir Overpasses (SNOs) Predictions

Prediction of SNOs between AQUA and METOP-A Satellite Orbit:

Table of predicted SNOs for the next 14.0 days since TLE Epoch: 2/22/2019
Index Date (AQUA) Time (AQUA) Lat,Lon (AQUA) SZA (AQUA ) Date (METOP-A) Time (METOP-A) Lat,Lon (METOP-A) SZA (METOP-A ) Distance(km) Time Diff (sec)
1 02/23/2019 21:23:41 74.91,-149.17 84.81 02/23/2019 21:22:59 74.89,-149.16 84.80 1.95 42
2 02/23/2019 22:13:08 -74.95, 18.36 95.16 02/23/2019 22:13:39 -74.95, 18.33 95.17 0.92 31
3 02/26/2019 16:57:57 74.90, -82.70 83.75 02/26/2019 16:57:13 74.90, -82.73 83.76 0.78 44
4 02/26/2019 17:47:25 -74.98, 84.71 96.17 02/26/2019 17:47:53 -74.96, 84.77 96.20 3.20 28
5 03/01/2019 12:32:12 74.89, -16.25 82.68 03/01/2019 12:31:26 74.90, -16.30 82.70 2.05 46
6 03/01/2019 13:21:40 -74.97, 151.18 97.25 03/01/2019 13:22:06 -74.97, 151.21 97.26 0.93 26
7 03/04/2019 08:06:28 74.89, 50.19 81.59 03/04/2019 08:05:40 74.91, 50.12 81.63 3.04 48
8 03/04/2019 08:55:56 -74.97,-142.37 98.34 03/04/2019 08:56:20 -74.98,-142.36 98.33 1.42 24
9 03/07/2019 03:40:45 74.94, 116.49 80.55 03/07/2019 03:39:54 74.91, 116.54 80.54 3.39 51
10 03/07/2019 04:30:12 -74.96, -75.93 99.44 03/07/2019 04:30:34 -74.99, -75.93 99.42 2.51 22




NCC Satellite Simultaneous Nadir Overpasses (SNOs) Prediction Service
